User: anonymous   Login
Location: ???????
(55.4362°N, 38.1183°E)
Time: 04:19:00
(UTC+00:00)
Language:

METEOR M2 - Orbit

View from above orbital plane
View from above orbital plane
View from above satellite
View from above satellite

Ground track
Ground track

The orbit data is extracted from the following two-line orbital elements,

1 40069U 14037A   22274.94991386  .00000000  00000-0  18977-4 0  9996
2 40069  98.4305 287.8907 0006144  24.5769 335.5708 14.20719613426983
Epoch (UTC): 01 October 2022 22:47:52
Eccentricity: 0.0006144
inclination: 98.4305°
perigee height: 818 km
apogee height: 827 km
right ascension of ascending node: 287.8907°
argument of perigee: 24.5769°
revolutions per day: 14.20719613
mean anomaly at epoch: 335.5708°
orbit number at epoch: 42698

The dashed part of the orbit path shows where the satellite is in the earth's shadow,  

DLR